Location: Newark
(43.4306°N, 0.3089°E)
Time: 02:11:19
(UTC+00:00)

S-56A Canister/Altair - Pass Details

Date: 27 August 2019
Orbit: 633 x 2499 km, 38.9° (Epoch: 15 September)

Event Time Altitude Azimuth Distance (km) Brightness Sun altitude
Rises 00:04:01 0° 271° (W) 2,930 - -36.3°
Reaches altitude 10° 00:06:32 10° 258° (WSW) 2,011 - -36.3°
Maximum altitude 00:10:17 27° 200° (SSW) 1,278 - -36.3°
Drops below altitude 10° 00:14:31 10° 143° (SE) 2,283 - -36.2°
Sets 00:17:34 0° 132° (SE) 3,420 - -36.2°
